Regional Weather Roundup
Issued by NWS

Home | Current Version | Previous Version | Graphics & Text | Print | Product List | Glossary Off
Versions: 1 2 3 4 5 6 7 8 9 10 11 12 13 14 15 16 17 18 19 20 21 22 23 24 25 26 27 28 29 30 31 32 33 34 35 36 37 38 39 40 41 42 43 44 45 46 47 48 49 50

000
ASUS43 KMKX 011621
RWRWI

WISCONSIN REGIONAL WEATHER ROUNDUP
NATIONAL WEATHER SERVICE MILWAUKEE/SULLIVAN WI
1100 AM CDT WED JUL 01 2015

NOTE: "FAIR" INDICATES FEW OR NO CLOUDS BELOW 12,000 FEET WITH NO
SIGNIFICANT WEATHER AND/OR OBSTRUCTIONS TO VISIBILITY.

WIZ001-002-006>008-014>016-023>028-011700-
NORTHWEST WISCONSIN

CITY           SKY/WX    TMP DP  RH WIND       PRES   REMARKS
SUPERIOR ARPT  MOSUNNY   65  52  61 CALM      30.02S
ASHLAND        SUNNY     65  53  65 CALM      30.03F
HAYWARD        MOSUNNY   63  48  58 CALM      30.04S
SIREN          MOSUNNY   66  45  47 S5        30.03S
CUMBERLAND     PTSUNNY   61  43  51 CALM      30.03S
RICE LAKE      PTSUNNY   63  44  49 CALM      30.04S
CHETEK         PTSUNNY   63  47  57 CALM      30.03S
LADYSMITH      MOSUNNY   63  47  56 CALM      30.05S
EAU CLAIRE     PTSUNNY   64  46  52 NE5       30.02R
MENOMONIE      PTSUNNY   64  45  51 CALM      30.03S
NEW RICHMOND   PTSUNNY   64  46  53 SE6       30.03R
OSCEOLA        PTSUNNY   66  46  49 SE8       30.05R
$$

WIZ003>005-009-010-017-018-011700-
NORTH CENTRAL WISCONSIN

CITY           SKY/WX    TMP DP  RH WIND       PRES   REMARKS
MANITOWISH WTR SUNNY     60  46  60 N7        30.03S
ARBOR VITAE    SUNNY     60  45  56 N7        30.02F
WOODRUFF       SUNNY     60  45  56 N7        30.02F
RHINELANDER    SUNNY     61  43  51 VRB7      30.02F
EAGLE RIVER    SUNNY     61  42  50 NE9       30.02S
LAND O LAKES   SUNNY     60  43  52 N6        30.03S
PHILLIPS       MOSUNNY   61  45  56 N7        30.03S
TOMAHAWK       SUNNY     61  45  55 E5        30.03S
MEDFORD        PTSUNNY   61  45  55 N8        30.02S
MERRILL        SUNNY     62  46  56 N9        30.03R
$$

WIZ029-030-035-036-043>047-011700-
CENTRAL WISCONSIN

CITY           SKY/WX    TMP DP  RH WIND       PRES   REMARKS
WAUSAU         MOSUNNY   64  44  48 N10G16    30.00S
MOSINEE        SUNNY     63  45  51 N10G16    30.02S
MARSHFIELD     PTSUNNY   62  44  51 NE7       30.01F
STEVENS POINT  PTSUNNY   61  43  51 N7        30.01S
WAUPACA        SUNNY     64  47  54 N8        29.99F
WAUTOMA        PTSUNNY   65  45  48 N8        30.00S
WISC RAPIDS    PTSUNNY   64  42  44 NE9       30.01S
CAMP DOUGLAS   PTSUNNY   63  52  67 VRB3      30.00S
$$

WIZ011>013-019>022-031-037>040-048>050-011700-
NORTHEAST WISCONSIN

CITY           SKY/WX    TMP DP  RH WIND       PRES   REMARKS
ANTIGO         SUNNY     61  43  51 NE10G18   30.01S
SHAWANO        SUNNY     64  47  55 N6        29.99S
OCONTO         CLOUDY    54  49  82 N6        30.00S
STURGEON BAY   CLOUDY    54  46  76 N10       30.02R
GREEN BAY      CLOUDY    60  49  66 N7        30.00R
MANITOWOC      CLOUDY    56  51  84 MISG      30.00R
APPLETON       MOSUNNY   61  46  59 N8        29.99S
CLINTONVILLE   SUNNY     63  45  51 N8        30.00R
OSHKOSH        SUNNY     62  49  62 N9        29.98S
$$

WIZ032>034-041-042-053>061-011700-
SOUTHWEST WISCONSIN

CITY           SKY/WX    TMP DP  RH WIND       PRES   REMARKS
LA CROSSE      MOSUNNY   64  48  56 E7        30.01R
SPARTA         MOSUNNY   65  44  45 NE8       30.02R
VIROQUA        MOSUNNY   64  46  51 NE6       30.02R
BOSCOBEL       SUNNY     67  50  54 N6        30.01R
PRAIRIE DU CHI SUNNY     65  51  60 NE5       29.99S
PLATTEVILLE    MOSUNNY   64  57  79 E3        29.99S
$$

WIZ056-057-062-063-064-067-068-011700-
SOUTH CENTRAL WISCONSIN

CITY           SKY/WX    TMP DP  RH WIND       PRES   REMARKS
REEDSBURG      SUNNY     63  47  57 CALM      29.99S
BARABOO/DELLS  SUNNY     63  44  50 CALM      29.99S
LONE ROCK      SUNNY     66  47  50 CALM      30.01R
MINERAL POINT  PTSUNNY   64  52  63 CALM      30.00R
MADISON        MOSUNNY   65  47  52 VRB6      29.98S
MIDDLETON      SUNNY     65  47  50 NE6       30.00R
WATERTOWN      SUNNY     64  50  61 W6        29.98S
MONROE         CLOUDY    63  54  72 CALM      29.99R
JANESVILLE     PTSUNNY   66  57  72 N5        29.97S
$$

WIZ051-052-058>065-066-070>072-011700-
SOUTHEAST WISCONSIN

CITY           SKY/WX    TMP DP  RH WIND       PRES   REMARKS
MILWAUKEE      MOSUNNY   61  49  64 E7        29.98R
WAUKESHA       MOSUNNY   63  48  59 W7        29.99R
MILWAUKEE/TIMM MOSUNNY   63  46  55 N8        29.98F
RACINE         SUNNY     62  48  60 NE10      30.00R
BURLINGTON     MOSUNNY   65  50  59 NW5       29.98R
KENOSHA        MOSUNNY   63  52  67 E9        29.99R
FOND DU LAC    SUNNY     63  50  62 N6        29.98S
SHEBOYGAN      CLOUDY    59  50  72 NW9       29.98R
WEST BEND      MOSUNNY   63  50  63 N3        29.97S
JUNEAU         SUNNY     60  50  67 NW7       29.99S
$$

LSZ147-162-011700-
LAKE SUPERIOR

STATION/POSITION TIME  TEMP    WIND        PRES    WAVE
                       AIR SEA DIR/SP/G            HT/PER
                 (UTC) (F)     (DEG/KT/KT) (MB)    (FT/S)
W MID LAKE BUOY  1550   44 39  170/  6/  6 1017.6R   1
DEVILS ISLAND    1600   57      40/  1/  2 1017.3R
SAXON HARBOR     1500   60        CALM     1016.9S
$$

LMZ867-665-643>646-011700-
LAKE MICHIGAN

STATION/POSITION TIME  TEMP    WIND        PRES    WAVE
                       AIR SEA DIR/SP/G            HT/PER
                 (UTC) (F)     (DEG/KT/KT) (MB)    (FT/S)
CHAMBERS ISLAND  1500   53     340/  8/ 11 1015.6R
S GREEN BAY BUOY 1600   53 68  360/  8/ 12 1017.1
N MID LAKE BUOY  1550   46 40  310/  6/  8 1015.0R   2/ 4
NORTHPORT PIER   1600   54     350/ 13/ 25 1015.2R
SISTER BAY       1544   57     350/ 15/ 17   N/A
ALGOMA LAKESHORE 1440          320/  7/  9   N/A
KEWAUNEE LAKESHO 1500   54     350/  7/  9 1014.5R
SHEBOYGAN LAKESH 1600   55      10/  8/  9 1015.8R
PORT WASHINGTON  1540   59     100/  6/  7 1015.6F
ATWATER BUOY     1600   56     100/  8/ 10 1016.5R
MILWAUKEE LAKESH 1600   57      80/  8/  9   N/A
KENOSHA   LAKESH 1600   55      60/  9/ 11 1015.6R
$$

TC  - TEMPERATURE IN CELSIUS
VSB - VISIBILITY IN STATUTE MILES
WCI - WIND CHILL INDEX
HX  - HEAT INDEX




USA.gov is the U.S. government's official web portal to all federal, state and local government web resources and services.